This demonstration page uses our WeatherBlox Daily Observations layout. Learn more.

Left ArrowRight Arrow

Hourly Observations for October 9, 2022

Temp ( °F °C ) Dew Point ( °F °C ) Humidity (%) Winds ( mph kmh ) Pressure ( in mb ) Visibility ( mi km ) Precip ( " mm )
12:56 am 00:56 Clear 50 10 41 5 71 71 SW 12 19 30.22 1023 10 16 0.00 0.00
1:56 am 01:56 Clear 50 10 41 5 71 71 W 6 9 30.21 1023 10 16 0.00 0.00
2:56 am 02:56 Clear 47 8.3 40 4.4 76 76 W 3 6 30.21 1023 10 16 0.00 0.00
3:56 am 03:56 Clear 44 6.7 39 3.9 82 82 WNW 5 7 30.20 1023 10 16 0.00 0.00
4:56 am 04:56 Clear 42 5.6 38 3.3 85 85 W 6 9 30.20 1023 10 16 0.00 0.00
5:56 am 05:56 Clear 42 5.6 37 2.8 82 82 WNW 7 11 30.20 1023 10 16 0.00 0.00
6:56 am 06:56 Clear 43 6.1 37 2.8 79 79 W 8 13 30.21 1023 10 16 0.00 0.00
7:56 am 07:56 Sunny 41 5 37 2.8 86 86 WSW 6 9 30.23 1024 10 16 0.00 0.00
8:56 am 08:56 Sunny 45 7.2 39 3.9 80 80 Calm 30.24 1024 10 16 0.00 0.00
9:56 am 09:56 Sunny 56 13.3 43 6.1 62 62 SW 3 6 30.24 1024 10 16 0.00 0.00
10:56 am 10:56 Sunny 62 16.7 42 5.6 48 48 W 6 9 30.23 1024 10 16 0.00 0.00
11:56 am 11:56 Sunny 67 19.4 38 3.3 34 34 NNW 5 7 30.22 1023 10 16 0.00 0.00
12:56 pm 12:56 Sunny 70 21.1 37 2.8 30 30 VRB 3 6 30.20 1023 10 16 0.00 0.00
1:56 pm 13:56 Sunny 72 22.2 41 5 33 33 WSW 6 9 30.17 1022 10 16 0.00 0.00
2:56 pm 14:56 Sunny 73 22.8 41 5 31 31 Calm 30.15 1021 10 16 0.00 0.00
3:56 pm 15:56 Sunny 74 23.3 41 5 30 30 W 7 11 30.14 1021 10 16 0.00 0.00
4:56 pm 16:56 Sunny 75 23.9 40 4.4 28 28 NW 5 7 30.13 1020 10 16 0.00 0.00
5:56 pm 17:56 Sunny 74 23.3 40 4.4 29 29 Calm 30.12 1020 10 16 0.00 0.00
6:56 pm 18:56 Sunny 68 20 41 5 37 37 ENE 3 6 30.12 1020 10 16 0.00 0.00
7:56 pm 19:56 Clear 59 15 42 5.6 53 53 SE 6 9 30.14 1021 10 16 0.01 0.13
8:56 pm 20:56 Clear 59 15 42 5.6 53 53 SSW 6 9 30.14 1021 10 16 0.00 0.00
9:56 pm 21:56 Clear 52 11.1 43 6.1 71 71 Calm 30.15 1021 10 16 0.00 0.00
10:56 pm 22:56 Clear 52 11.1 43 6.1 71 71 Calm 30.15 1021 10 16 0.00 0.00
11:56 pm 23:56 Clear 52 11.1 42 5.6 69 69 Calm 30.14 1021 10 16 0.00 0.00

Powered by AerisWeather